SCP
0 0 0 0 0 0 0 0 1 1 2 2 2 2 2 1 1 0 0 0 0 0 0 0 0 0 0 0 0 0 0 0 0 0 0 0 0 0 0 0 0 0 0 0
0 0 0 0 0 0 1 1 1 1 1 1 1 2 2 1 1 0 0 0 0 0 0 0 0 0 0 0 0 0 0 0 0 0 0 0 0 0 0 0 0 0 0 0
0 0 0 0 0 1 1 1 2 1 1 1 1 1 1 1 1 0 0 0 0 0 0 0 0 0 0 0 0 0 0 0 0 0 0 0 0 0 0 0 0 0 0 0
0 0 0 0 0 1 1 1 1 1 1 0 0 0 0 0 0 0 0 0 0 0 0 0 0 0 0 0 0 0 0 0 0 0 0 0 0 0 0 0 0 0 0 0
0 0 0 0 0 0 0 1 1 0 0 0 0 0 0 0 0 0 0 0 0 0 0 0 0 0 0 0 0 0 0 0 0 0 0 0 0 0 0 0 0 0 0 0
0 0 0 0 0 0 0 0 0 0 0 0 0 0 0 0 0 0 0 0 0 0 0 0 0 0 0 0 0 0 0 0 0 0 0 0 0 0 0 0 0 0 0 0
0 0 0 0 0 0 0 0 0 0 0 0 0 0 0 0 0 0 0 0 0 0 0 0 0 0 0 0 0 0 0 0 0 0 0 0 0 0 0 0 0 0 0 0
0 0 0 0 0 0 0 0 0 0 0 0 0 0 0 0 0 0 0 0 0 0 0 0 0 0 0 0 0 0 0 0 0 0 0 0 0 0 0 0 0 0 0 0
0 0 0 0 0 0 0 0 0 0 0 0 0 0 0 0 0 0 0 0 0 0 0 0 0 0 0 0 0 0 0 0 0 0 0 0 0 0 0 0 0 0 0 0
0 0 0 0 0 0 0 0 0 0 0 0 0 0 0 0 0 0 0 0 0 0 0 0 0 0 0 0 0 0 0 0 0 0 0 0 0 0 0 0 0 0 0 0
0 0 0 0 0 0 0 0 0 0 0 0 0 0 0 0 0 0 0 0 0 0 0 0 0 0 0 0 0 0 0 0 0 0 0 0 0 0 0 0 0 0 0 0
0 0 0 0 0 0 0 0 0 0 0 0 0 0 0 0 0 0 0 0 0 0 0 0 0 0 0 0 0 0 0 0 0 0 0 0 0 0 0 0 0 0 0 0
0 0 0 0 0 0 0 0 0 0 0 0 0 0 0 0 0 0 0 0 0 0 0 0 0 0 0 0 0 0 0 0 0 0 0 0 0 0 0 0 0 0 0 0
0 0 0 0 0 0 0 0 0 0 0 0 0 0 0 0 0 0 0 0 0 0 0 0 0 0 0 0 0 0 0 0 0 0 0 0 0 0 0 0 0 0 0 0
0 0 0 0 0 0 0 0 0 0 0 0 0 0 0 0 0 0 0 0 0 0 0 0 0 0 0 0 0 0 0 0 0 0 0 0 0 0 0 0 0 0 0 0
0 0 0 0 0 0 0 0 0 0 0 0 0 0 0 0 0 0 0 0 0 0 0 0 0 0 0 0 0 0 0 0 0 0 0 0 0 0 0 0 0 0 0 0
0 0 0 0 0 0 0 0 0 0 0 0 0 0 0 0 0 0 0 0 0 0 0 0 0 0 0 0 0 0 0 0 0 0 0 0 0 0 0 0 0 0 -0 -0
0 0 0 0 0 0 0 0 0 0 0 0 0 0 0 0 0 0 0 0 0 0 0 0 0 0 0 0 0 0 0 0 0 0 0 0 0 0 0 0 0 0 0 0
0 0 0 0 0 0 0 0 0 0 0 0 0 0 0 0 0 0 0 0 0 0 0 0 0 0 0 0 0 0 0 0 0 0 0 0 0 0 0 0 0 0 0 0
0 0 0 0 0 0 0 0 0 0 0 0 0 0 0 0 0 0 0 0 0 0 0 0 0 0 0 0 0 0 0 0 0 0 0 0 0 0 0 0 0 0 0 0
0 0 0 0 0 0 0 0 0 0 0 0 0 0 0 0 0 0 0 0 0 0 0 0 0 0 0 0 0 0 0 0 0 0 0 0 0 0 0 0 0 0 0 0
0 0 0 0 0 0 0 0 0 0 0 0 0 0 0 0 0 0 0 0 0 0 0 0 0 0 0 0 0 0 0 0 0 0 0 0 0 0 0 0 0 0 0 0
0 0 0 0 0 0 0 0 0 0 0 0 0 0 0 0 0 0 0 0 0 0 0 0 0 0 0 0 0 0 0 0 0 0 0 0 0 0 0 0 0 0 0 0
0 0 0 0 0 0 0 0 0 0 0 0 0 0 0 0 0 0 0 0 0 0 0 0 0 0 0 0 0 0 0 0 0 0 0 0 0 0 0 0 0 0 0 0
0 0 0 0 0 0 0 0 0 0 0 0 0 0 0 0 0 0 0 0 0 0 0 0 0 0 0 0 0 0 0 0 0 0 0 0 0 0 0 0 0 0 0 0
0 0 0 0 0 0 0 0 0 0 0 0 0 0 0 0 0 0 0 0 0 0 0 0 0 0 0 0 0 0 0 0 0 0 0 0 0 0 0 0 0 0 0 0
0 0 0 0 0 0 0 0 0 0 0 0 0 0 0 0 0 0 0 -0 0 0 0 0 0 0 0 0 0 0 0 0 0 0 0 0 0 0 0 0 0 0 0 0
Wind_Speed
2 3 4 4 6 4 2 4 6 8 7 4 4 6 8 9 10 10 10 9 8 7 6 7 8 8 8 7 7 8 8 8 7 7 7 8 8 8 7 7 7 5 5 4
6 8 7 6 8 5 5 3 10 13 8 4 6 8 9 8 9 10 10 10 8 8 8 8 8 8 9 9 8 8 8 7 7 7 8 7 7 6 6 6 5 5 4 3
3 6 6 8 9 8 9 7 6 6 7 7 10 11 8 7 8 9 9 9 9 8 8 8 7 8 9 8 8 8 8 7 7 6 7 6 6 6 5 4 4 4 3 2
2 5 3 1 7 14 15 14 12 13 11 11 12 10 10 9 8 9 9 9 8 8 8 7 7 7 8 8 8 8 7 5 5 6 6 6 6 5 4 3 3 2 2 3
3 2 1 1 3 2 7 7 6 10 11 12 12 9 8 8 8 8 8 8 8 7 8 8 7 6 7 7 6 5 4 4 4 5 6 5 5 4 3 2 3 3 3 4
4 3 2 1 5 3 11 4 2 6 9 10 6 3 3 4 7 8 8 8 7 7 7 7 6 5 5 5 4 4 4 4 5 5 5 4 3 2 2 2 3 3 4 4
3 2 2 3 5 4 4 4 1 4 5 5 3 4 8 8 8 8 8 7 7 7 6 5 4 4 4 4 3 3 4 5 5 5 4 3 2 2 3 3 4 4 4 4
2 2 5 4 4 4 4 3 4 5 6 9 11 11 10 9 9 8 8 7 6 5 4 3 3 4 4 3 2 3 4 5 5 4 3 3 3 3 4 4 4 4 4 5
4 4 3 2 5 4 5 5 4 5 8 13 12 11 10 8 8 7 6 5 4 4 3 2 1 3 3 1 2 3 4 5 4 4 4 3 3 3 4 4 3 3 3 4
3 1 2 4 4 4 4 4 6 9 11 12 13 12 11 8 6 6 4 3 3 4 3 2 1 2 1 0 1 3 4 4 4 3 2 2 2 2 2 2 2 3 3 4
2 1 3 3 3 5 7 9 11 10 9 11 13 13 11 8 6 4 3 2 2 3 3 2 2 2 2 2 3 5 5 4 3 2 2 1 1 1 2 2 2 0 2 3
4 4 3 2 2 6 9 9 11 13 11 10 11 11 9 7 5 4 3 2 3 3 3 3 3 3 3 4 5 6 4 3 2 2 1 1 1 0 2 3 3 2 3 4
2 1 3 4 5 7 8 10 11 11 12 11 9 9 7 5 4 4 4 4 4 4 4 4 4 3 3 3 4 5 4 3 2 2 1 1 1 1 1 2 4 5 5 7
3 4 4 4 6 8 10 11 11 11 10 9 7 6 5 5 4 5 5 5 5 5 5 4 4 3 2 3 4 3 3 3 3 2 2 1 1 1 1 1 1 3 4 6
1 3 7 9 9 10 10 10 10 9 8 6 6 6 6 5 5 5 5 6 7 6 5 4 3 2 1 2 3 2 2 1 2 2 2 1 1 1 1 1 1 1 3 4
6 9 11 12 12 11 10 9 9 8 7 6 5 6 6 6 6 6 6 7 7 5 3 3 1 2 2 1 1 1 1 2 2 2 1 1 1 1 1 0 0 1 2 3
9 9 11 12 11 10 9 8 8 7 6 6 6 7 9 10 9 8 7 6 6 5 3 3 1 1 0 1 2 2 2 2 2 1 2 2 2 2 1 1 1 0 1 2
7 8 9 10 9 9 8 8 8 7 7 8 9 10 10 10 9 7 6 6 6 4 3 2 3 3 3 3 2 1 1 1 2 2 2 2 2 1 1 1 1 1 1 2
8 9 9 9 8 8 7 7 7 7 7 9 10 9 8 8 8 7 6 6 5 3 2 4 6 5 5 5 4 2 3 3 3 2 2 3 3 2 1 1 1 0 0 1
8 9 9 9 8 8 7 7 7 7 8 9 9 8 7 6 7 7 6 4 2 2 0 3 5 4 5 5 5 4 4 4 4 3 3 3 3 2 2 2 2 2 2 2
10 10 11 10 8 7 7 8 8 8 8 9 9 8 8 7 7 7 6 3 1 1 3 5 4 4 4 4 6 4 4 4 4 3 3 3 3 3 3 3 4 4 3 3
9 10 11 10 9 7 7 7 8 8 8 8 9 8 8 7 6 5 3 2 2 4 4 3 3 6 6 6 4 4 4 4 4 3 3 3 3 3 3 4 4 4 4 4
9 9 10 9 9 8 7 7 8 8 8 8 8 8 7 6 5 5 3 1 2 5 4 2 4 8 8 5 4 5 5 5 4 4 4 4 4 4 4 4 4 4 4 4
9 9 9 8 8 7 7 7 7 6 7 6 7 8 8 6 3 2 3 4 5 5 3 2 5 6 6 3 4 4 4 4 4 4 4 4 4 4 4 5 5 4 5 6
10 9 8 9 7 6 6 7 6 6 6 4 6 7 6 6 6 4 3 3 3 3 2 2 4 5 4 3 3 3 3 4 4 4 4 4 4 4 4 5 5 5 4 5
8 7 7 6 5 5 5 5 4 4 5 5 4 5 5 4 5 4 3 3 2 1 1 1 2 4 4 4 4 4 3 4 5 5 5 5 5 5 5 5 7 5 5 5
8 6 5 5 4 5 5 5 5 5 5 7 7 5 6 5 4 4 3 2 2 1 0 2 3 4 4 4 4 4 4 4 4 4 5 5 5 5 5 6 5 5 5 5
Wind_Direction
31 357 2 347 348 11 77 162 159 152 125 113 83 96 104 112 114 113 110 105 102 99 95 87 80 74 74 74 77 85 82 78 77 74 73 73 72 70 68 69 73 78 86 97
14 2 358 8 7 48 56 86 122 118 98 79 76 81 86 98 114 113 111 110 107 101 95 90 87 85 80 75 72 75 74 71 68 67 69 70 71 69 68 64 61 62 67 69
359 344 23 14 5 69 64 42 119 120 119 114 84 67 61 69 93 104 108 108 103 97 93 90 88 89 85 78 71 68 67 65 65 70 72 72 74 69 64 58 52 48 40 26
55 42 51 81 69 78 70 52 70 97 108 106 100 81 56 53 81 94 101 101 98 97 93 85 82 81 81 77 74 73 71 70 73 84 82 75 71 64 55 44 39 26 11 2
100 95 295 71 20 96 104 58 70 112 124 127 126 95 59 47 69 85 94 100 99 99 98 91 83 81 82 78 77 79 81 79 84 94 90 79 69 54 37 33 19 5 3 8
107 122 219 290 326 87 104 88 45 126 147 165 175 126 123 96 94 97 98 100 101 97 93 87 78 78 83 85 86 93 93 88 91 101 102 95 81 50 27 27 17 15 20 22
113 162 262 313 322 46 120 175 170 116 127 135 130 124 127 120 109 107 103 99 97 94 91 89 85 82 85 86 97 109 104 97 100 107 113 103 74 42 35 35 33 26 19 3
129 187 244 313 40 92 164 157 116 111 115 115 115 116 122 124 120 114 109 101 98 97 95 90 91 97 99 109 130 119 108 101 94 94 91 86 72 46 40 42 37 18 4 350
180 202 228 64 105 133 137 125 133 134 134 129 127 128 127 125 121 116 112 108 104 107 101 90 106 114 118 166 141 115 110 108 103 91 74 80 83 67 48 38 32 5 356 342
69 87 102 83 86 76 91 111 121 131 134 132 131 132 129 127 124 121 119 117 107 100 94 79 69 84 134 226 120 113 125 129 126 113 91 76 83 92 82 51 28 2 349 335
85 126 85 57 78 97 93 100 108 113 119 129 131 132 132 133 135 137 137 129 123 117 112 102 76 50 39 65 98 105 121 136 141 148 151 133 126 152 151 190 185 236 314 312
206 211 163 173 139 114 109 113 120 121 117 123 129 131 133 138 147 151 152 149 129 119 114 103 86 72 68 81 95 105 115 131 147 163 181 184 181 283 246 217 221 242 289 316
194 135 122 120 106 102 108 115 118 121 126 129 130 134 138 145 159 159 155 143 134 130 124 111 93 77 72 87 99 111 131 150 162 171 181 188 173 176 270 293 274 278 296 325
129 113 108 115 117 114 115 117 118 119 124 130 135 139 139 140 145 148 149 145 133 123 116 108 100 95 97 97 102 114 131 157 163 182 190 190 186 180 174 173 322 320 315 325
61 122 131 123 119 119 121 123 124 127 133 137 142 143 143 141 143 144 137 125 116 113 116 120 126 167 186 123 111 117 127 161 183 197 195 187 161 132 121 105 59 345 343 340
96 106 119 123 126 129 132 132 130 136 140 141 142 143 140 131 122 113 111 113 112 117 126 128 163 239 222 184 203 225 226 213 190 186 178 147 134 132 133 125 92 20 353 333
121 124 128 131 133 133 135 135 135 138 136 132 129 120 110 104 99 97 97 100 107 111 109 99 44 338 75 160 234 235 235 228 200 141 144 147 147 152 159 154 158 180 292 312
134 133 135 136 135 134 134 131 132 130 128 124 118 114 113 114 115 116 112 101 87 70 48 31 15 10 5 356 335 220 171 160 147 143 133 131 139 138 131 131 154 176 276 314
137 138 139 138 137 134 132 130 132 129 122 118 119 120 122 125 127 126 116 104 98 79 346 358 21 27 2 348 7 72 95 98 91 96 102 104 96 83 86 88 92 125 242 332
149 146 142 139 135 131 132 133 127 118 118 120 117 113 113 120 124 123 115 113 152 197 314 38 36 18 356 1 40 75 86 89 87 85 85 90 93 83 73 64 57 54 44 24
146 145 143 143 138 134 132 128 123 123 124 124 124 126 126 124 119 118 114 110 275 58 64 54 36 7 3 32 55 73 83 85 84 83 84 84 81 75 67 57 51 47 44 36
141 139 139 138 135 132 131 126 126 127 126 125 126 125 124 124 120 112 116 157 178 113 89 61 34 32 47 56 53 60 69 75 75 74 73 75 80 80 72 66 58 54 51 44
134 134 134 136 136 136 132 130 132 133 135 136 134 133 133 138 138 130 135 204 142 115 102 79 59 53 56 55 53 56 61 69 75 77 75 75 80 83 78 70 64 62 57 47
131 131 133 132 126 125 134 142 141 143 146 144 143 142 137 127 116 137 158 156 144 119 95 68 65 72 79 71 62 60 60 66 73 76 76 72 74 75 76 74 69 63 57 52
133 132 132 131 130 138 145 144 137 141 139 127 130 136 138 141 145 164 164 160 147 111 62 34 68 91 99 93 79 70 66 75 89 89 82 78 74 75 75 73 70 65 59 51
134 136 139 143 145 145 141 135 136 146 134 122 123 130 129 131 137 146 157 176 185 135 49 34 85 94 96 94 89 83 75 76 78 80 86 84 78 76 76 74 71 64 56 51
131 131 131 132 140 143 141 141 144 149 142 136 137 144 143 145 151 166 181 194 207 212 72 102 113 108 99 91 84 78 73 74 79 83 87 86 84 80 77 77 71 65 58 51